Simultaneous Nadir Overpasses (SNOs) Predictions

Prediction of SNOs between AURA and NPP Satellite Orbit:

Table of predicted SNOs for the next 14.0 days since TLE Epoch: 10/3/2014
Index Date (AURA) Time (AURA) Lat,Lon (AURA) SZA (AURA ) Date (NPP) Time (NPP) Lat,Lon (NPP) SZA (NPP ) Distance(km) Time Diff (sec)
1 10/04/2014 21:57:06 -75.43, -89.73 78.81 10/04/2014 21:56:43 -75.44, -89.69 78.80 1.28 23
2 10/04/2014 22:46:09 76.54, 81.33 100.01 10/04/2014 22:47:03 76.55, 81.42 99.94 2.39 54
3 10/07/2014 13:24:26 74.48,-143.95 103.13 10/07/2014 13:23:17 74.48,-143.97 103.20 0.63 69
4 10/07/2014 14:13:29 -75.72, 26.97 78.15 10/07/2014 14:13:37 -75.71, 26.94 78.15 0.76 8
5 10/10/2014 05:40:45 74.91, -27.01 103.64 10/10/2014 05:40:08 74.90, -27.07 103.69 1.90 37
6 10/10/2014
